Regional Weather Roundup
Issued by NWS

Home | Current Version | Previous Version | Graphics & Text | Print | Product List | Glossary On
Versions: 1 2 3 4 5 6 7 8 9 10 11 12 13 14 15 16 17 18 19 20 21 22 23 24 25 26 27
000
ASUS45 KSLC 280210
RWRUT

UTAH REGIONAL WEATHER ROUNDUP
NATIONAL WEATHER SERVICE SALT LAKE CITY UT
800 PM MDT SAT AUG 27 2016

UTZ001>011-023>025-280300-

NORTHERN UTAH

CITY           SKY/WX    TMP DP  RH WIND       PRES   REMARKS
BRIGHAM CITY     N/A     77  30  18 SE5       29.99S
HILL AFB       CLEAR     78  26  14 S3        30.03S
LOGAN          CLEAR     77  28  16 S7        30.00S
OGDEN          CLEAR     78  25  14 S3        30.00S
PROVO AIRPORT  PTCLDY    75  45  33 MISG      30.01R
SALT LAKE CITY PTCLDY    83  28  13 N6        29.99S
VERNAL         CLOUDY    69  47  45 CALM      30.07S
WENDOVER       CLEAR     81  28  15 S7        29.98S
HEBER CITY     CLEAR     70  34  26 SW7       30.06S
WEST JORDAN    CLEAR     77  32  19 N3        30.03S

$$

UTZ012>022-026-027-280300-

SOUTHERN/CENTRAL UTAH

CITY           SKY/WX    TMP DP  RH WIND       PRES   REMARKS
BLANDING       MOCLDY    66  46  48 S5        30.26R
BRYCE CANYON   CLOUDY    56  47  71 CALM      30.28R
CEDAR CITY     CLOUDY    61  49  64 SW9       30.15S
MILFORD        MOCLDY    70  43  37 S13       30.09S
MOAB/CYNLANDS  CLOUDY    78  41  26 CALM      30.06R
PRICE          PTCLDY    71  39  31 W6        30.15R
ST GEORGE      CLEAR     75  55  50 NE3       30.06R

$$

REGIONAL REPORTS     COLORADO/ARIZONA

CITY           SKY/WX    TMP DP  RH WIND       PRES   REMARKS
CRAIG, CO      CLOUDY    69  37  30 SW8       30.15R
GRAND JUNCTION CLOUDY    71  45  39 E14       30.12R
RIFLE          CLOUDY    70  44  39 W12       30.14R
MONTROSE       CLOUDY    65  45  48 S13       30.21S
CORTEZ         CLOUDY    64  50  60 SW7       30.21R
PAGE, AZ       PTCLDY    71  51  49 NW3       30.09S
GRAND CANYON   MOCLDY    59  49  69 CALM      30.22S
KINGMAN        MOCLDY    75  56  51 S3        30.04S
FLAGSTAFF      PTCLDY    57  46  66 CALM      30.24R

$$

REGIONAL REPORTS    NEVADA/IDAHO/WYOMING

CITY           SKY/WX    TMP DP  RH WIND       PRES   REMARKS
LAS VEGAS, NV  MOCLDY    86  45  23 E10       29.92S
ELY            CLEAR     76  14   9 NW7       30.11R
ELKO           CLEAR     82  16   8 W7        30.03S
POCATELLO, ID  CLOUDY    77  33  20 SW10      29.99R
BURLEY         CLEAR     73  43  33 S5        29.95S
EVANSTON, WY   CLEAR     66  22  18 W12       30.19R
ROCK SPRINGS   CLEAR     70  17  13 W10       30.14R

$$




USA.gov is the U.S. government's official web portal to all federal, state and local government web resources and services.